This is the latest recevied weather packets stored in our database for station/object DO1SN-13. If no packets are shown the sender has not sent any weather packets the latest 10 day(s).
| Time | Temp. | Humidity | Pressure | Rain* | Wind** | Luminosity | Snow |
|---|---|---|---|---|---|---|---|
| 1787750866 | 36.67° C | - | 1019.4 hPa | 0 mm | - | - | - |
| 1787750502 | 36.11° C | - | 1019.5 hPa | 0 mm | - | - | - |
| 1787750138 | 33.33° C | - | 1019.5 hPa | 0 mm | - | - | - |
| 1787749773 | 34.44° C | - | 1019.5 hPa | 0 mm | - | - | - |
| 1787749409 | 32.78° C | - | 1019.6 hPa | 0 mm | - | - | - |
| 1787749045 | 35° C | - | 1019.6 hPa | 0 mm | - | - | - |
| 1787748681 | 34.44° C | - | 1019.5 hPa | 0 mm | - | - | - |
| 1787748317 | 32.22° C | - | 1019.5 hPa | 0 mm | - | - | - |
| 1787747953 | 31.67° C | - | 1019.5 hPa | 0 mm | - | - | - |
| 1787747589 | 36.11° C | - | 1019.6 hPa | 0 mm | - | - | - |
| 1787747224 | 32.22° C | - | 1019.6 hPa | 0 mm | - | - | - |
| 1787746860 | 32.78° C | - | 1019.6 hPa | 0 mm | - | - | - |
| 1787746496 | 33.89° C | - | 1019.6 hPa | 0 mm | - | - | - |
| 1787746132 | 34.44° C | - | 1019.6 hPa | 0 mm | - | - | - |
| 1787745768 | 32.78° C | - | 1019.7 hPa | 0 mm | - | - | - |
| 1787745404 | 35° C | - | 1019.8 hPa | 0 mm | - | - | - |
| 1787745039 | 35.56° C | - | 1019.8 hPa | 0 mm | - | - | - |
| 1787744675 | 35° C | - | 1019.8 hPa | 0 mm | - | - | - |
| 1787744311 | 35° C | - | 1019.8 hPa | 0 mm | - | - | - |
| 1787743947 | 32.22° C | - | 1019.9 hPa | 0 mm | - | - | - |
| 1787743583 | 34.44° C | - | 1019.8 hPa | 0 mm | - | - | - |
| 1787743218 | 35° C | - | 1019.8 hPa | 0 mm | - | - | - |
| 1787742854 | 33.33° C | - | 1019.7 hPa | 0 mm | - | - | - |
| 1787742490 | 33.89° C | - | 1020 hPa | 0 mm | - | - | - |
| 1787742126 | 30.56° C | - | 1019.8 hPa | 0 mm | - | - | - |
* Rain latest hour (hover to see other rain measurements)
** Current wind speed in m/s (hover to see current wind gust speed)